{"data":{"norad_id":48790,"intl_designator":"2021-045Z","name":"ONEWEB-0213","alt_names":[],"object_type":"PAYLOAD","status":"ACTIVE","operator":null,"country":"UK","launch_date":"2021-05-28","launch_site_code":"VOSTO","launch_vehicle":null,"mission":null,"orbit_class":"UNKNOWN","rcs_meters":null,"size_class":null,"mass_kg":null,"dimensions":null,"purposes":["comms"],"wikipedia_slug":null,"has_3d_model":false,"image_url":null,"decayed_at":null,"tle_current":{"epoch":"2026-09-19T22:10:55.600032Z","epoch_age_seconds":71751,"freshness":"FRESH","line1":"1 48790U 21045Z   26262.92425463  .00000163  00000+0  39936-3 0  9995","line2":"2 48790  87.8995 240.3096 0002086  75.1459 284.9903 13.15548486256897","mean_motion":13.15548486,"eccentricity":0.0002086,"inclination_deg":87.8995,"raan_deg":240.3096,"arg_perigee_deg":75.1459,"mean_anomaly_deg":284.9903,"bstar":0.00039936,"rev_number":25689,"period_min":109.46004767779,"perigee_km":1200.1898444861,"apogee_km":1203.3521821093,"semimajor_km":7579.9080132977,"source":"CELESTRAK","updated_at":"2026-09-20T09:00:44.620086Z"}}}